Regional Weather Roundup
Issued by NWS Newport/Morehead, NC

Current Version | Previous Version | Graphics & Text | Print | Product List | Glossary Off
Versions: 1 2 3 4 5 6 7 8 9 10 11 12 13 14 15 16 17 18 19 20 21 22 23 24 25 26 27 28 29 30 31 32 33 34 35 36 37 38 39 40 41 42 43 44 45 46 47 48 49 50

000
ASUS42 KMHX 271813
RWRMHX
WEATHER ROUNDUP FOR EASTERN NORTH CAROLINA
NATIONAL WEATHER SERVICE NEWPORT/MOREHEAD CITY NC
200 PM EDT THU APR 27 2017

NOTE: "FAIR" INDICATES FEW OR NO CLOUDS BELOW 12,000 FEET
WITH NO SIGNIFICANT WEATHER AND/OR OBSTRUCTIONS TO VISIBILITY

NCZ015>017-031-032-045>047-102-103-271900-
NORTH COAST

CITY           SKY/WX    TMP DP  RH WIND       PRES   REMARKS
EDENTON        SUNNY     83  64  52 S10       29.89S
ELIZABETH CITY SUNNY     82  65  56 S13G22    29.88F
KITTY HAWK     PTCLDY    80  65  59 S9G17     29.89F
MANTEO         SUNNY     76  66  71 S17       29.91F

$$

NCZ045>047-081-094-103-104-271900-
CENTRAL COAST

CITY           SKY/WX    TMP DP  RH WIND       PRES   REMARKS
FRISCO         MOSUNNY   81  68  64 SE6       29.94F HAZE

$$

NCZ095-097-098-100-101-271900-
SOUTHERN COAST

CITY           SKY/WX    TMP DP  RH WIND       PRES   REMARKS
BEAUFORT       SUNNY     76  69  79 S16       29.93F
CEDAR ISLAND   NOT AVBL
JACKSONVILLE   NOT AVBL
PINEY ISLAND   CLEAR    N/A N/A N/A SW12G18   29.90F
WILMINGTON     MOSUNNY   82  60  47 S15G24    29.91S


$$

NCZ011>013-027>030-043-044-078>080-089-090>093-098-271900-
COASTAL PLAIN

CITY           SKY/WX    TMP DP  RH WIND       PRES   REMARKS
AHOSKIE          N/A     81  61  51 S5        29.87S
CLINTON        SUNNY     81  59  46 S6        29.90S
ELIZABETHTOWN  SUNNY     82  57  42 SW7       29.90S
GOLDSBORO      PTSUNNY   81  57  43 SW13G20   29.88S
GREENVILLE     MOSUNNY   82  63  51 S10G16    29.90F
HAVELOCK       NOT AVBL
KENANSVILLE    PTSUNNY   82  57  42 S5G18     29.90S
KINSTON        PTSUNNY   82  59  44 SW10G16   29.90S
NEW BERN       MOSUNNY   83  66  56 S13       29.90F
RICHLANDS      MOSUNNY   84  60  44 S20G29    29.89F
ROCKY MOUNT    MOSUNNY   81  62  52 SW12G20   29.88F
WASHINGTON     MOSUNNY   82  62  50 S13G18    29.88F
WHITEVILLE     PTSUNNY   81  60  48 SW13G20   29.90S

$$

AMZ130-135-150-152-154-156-158-170-250-252-270-ANZ085-086-088-633-658-670-271900-
MARINE OBSERVATIONS

STATION/POSITION TIME  TEMP    WIND        PRES    WAVE   SWELL
                       AIR SEA DIR/SP/G            HT/PER HT/PER
                 (UTC) (F)     (DEG/KT/KT) (MB)    (FT/S) (FT/S)
CHESAPEAKE LIGHT NOT AVBL
64 E VA BEACH    1750   60 57  190/ 10/ 12 1014.0    5/ 9   5/ 9
DUCK             1748   78 58  190/ 10/ 13 1011.9
2 E DUCK         NOT AVBL
OREGON INLET     1736   74 69  170/ 10/ 12 1013.6
13E OREGON INLT  1648      62                N/A     5/11   5/11
HATTERAS CG      1748   77 69  220/  8/ 11 1013.7
DIAMOND BUOY     1750   76 77  240/ 14/ 16 1014.2    5/ 9   3/ 9
CAPE LOOKOUT     1800   75     200/ 12/ 16 1013.2
BEAUFORT LAB     1748   73 67  200/ 13/ 15 1012.5
30 SE NEW RVR IN 1708   72     220/  8/ 10 1014.5
30 SE NEW RVR IN 1643      72                N/A     4/ 9   2/11
27 SE WRIGHTSVLE 1708   73 73  170/  6/ 10 1013.4
5 SE WRIGHTSVLE  1708   72 71  160/ 10/ 16 1013.3
225 S CAPE HAT   1750   74 75  180/ 14/ 16 1018.1    5/ 8   3/ 8
41 SE CHARLESTON 1750   75 74  170/  8/ 10 1013.9    4/ 6   3/ 6

$$



USA.gov is the U.S. government's official web portal to all federal, state and local government web resources and services.